Location: New Canada
(47.1017°N, 68.5042°W)
Time: 16:43:59
(UTC+00:00)

KKS-1 - Pass Details

Date: 02 May 2024
Orbit: 628 x 639 km, 98.1° (Epoch: 21 May)

Event Time Altitude Azimuth Distance (km) Brightness Sun altitude
Rises 03:43:05 0° 16° (NNE) 2,956 ? -26.5°
Reaches altitude 10° 03:45:19 10° 19° (NNE) 2,041 ? -26.6°
Enters shadow 03:48:49 51° 47° (NE) 812 ? -26.7°
